Theta_e
309 309 309 309 309 309 309 309 309 310 310 310 311 312 312 313 313 314 316 315 314 313 312 312 313 315 317 318 315 316 311 312 315 317 317 317 316 317 317 317 316 315 316 315 315
310 310 310 310 309 309 309 309 309 310 310 311 311 312 312 313 314 316 316 315 314 313 312 315 315 316 317 318 318 316 312 315 314 315 316 317 317 317 316 316 314 313 313 313 314
311 310 310 310 310 309 309 309 309 309 310 311 311 312 313 313 318 318 313 312 312 312 312 315 314 316 317 317 318 317 313 314 315 317 318 317 317 317 317 314 314 315 313 313 313
311 310 310 310 310 310 310 309 309 309 310 310 311 312 312 314 319 317 312 311 311 312 312 315 317 317 317 317 318 315 316 315 317 316 317 317 317 316 316 315 315 315 314 313 312
310 310 310 310 310 310 310 310 309 309 309 310 311 312 313 316 318 319 318 313 311 312 313 315 316 317 317 316 317 316 316 317 317 316 316 317 316 316 315 314 314 313 312 312 312
310 310 310 310 310 310 310 310 310 309 309 310 311 311 313 317 316 318 318 317 313 311 312 313 316 317 316 316 316 316 316 317 317 317 317 316 315 316 314 314 313 312 311 311 311
308 309 309 309 309 309 310 310 310 309 309 309 310 311 313 313 316 318 317 317 317 314 313 313 315 316 316 316 316 316 315 314 315 316 315 316 313 313 315 313 313 311 311 310 310
309 308 309 309 309 310 310 310 310 309 308 309 310 312 312 314 316 318 318 317 317 315 314 316 314 316 317 316 316 315 315 316 316 314 315 315 315 315 314 313 312 311 310 310 310
319 316 312 308 308 310 310 310 309 308 308 309 311 313 313 315 317 317 318 317 316 316 315 315 314 315 315 312 313 314 315 315 316 314 312 312 313 311 311 312 311 311 310 310 310
324 323 319 316 312 307 307 308 308 308 308 310 311 314 313 315 317 317 316 316 316 315 314 313 314 312 311 311 314 316 316 316 317 314 312 311 311 310 311 311 311 311 311 310 310
323 324 324 322 317 315 308 307 311 315 311 310 313 314 317 314 315 315 316 315 315 314 312 314 311 312 312 311 313 315 316 316 314 314 313 312 312 310 311 310 310 311 311 311 310
319 321 323 323 323 318 314 308 315 316 315 314 315 315 317 317 314 314 315 315 314 313 313 313 313 313 313 313 314 314 314 314 314 313 312 312 312 311 311 311 311 311 311 311 309
318 319 320 323 322 320 319 313 313 316 316 315 312 312 315 315 316 314 315 314 313 313 313 314 315 315 315 315 316 314 315 314 315 314 312 312 312 312 311 312 312 311 311 311 310
320 318 320 322 318 318 321 319 313 314 313 314 316 317 316 316 314 316 315 315 313 314 314 314 314 315 314 315 314 315 314 315 315 315 314 312 316 314 312 310 309 310 311 311 309
320 321 321 319 320 319 321 320 315 315 321 315 317 317 316 316 314 313 314 314 312 313 314 315 314 314 315 314 313 314 314 314 314 313 314 313 313 314 313 314 310 310 310 311 309
319 319 320 320 320 320 320 318 316 319 320 317 314 314 314 316 312 311 312 312 312 313 312 312 313 312 313 311 313 311 313 312 312 313 315 313 314 316 315 316 314 311 309 308 307
314 317 318 318 319 319 318 316 316 318 318 317 316 314 315 315 311 310 310 311 313 314 314 313 312 313 312 312 312 313 314 317 317 315 317 313 314 317 314 312 311 309 308 307 306
308 310 315 318 318 319 317 313 315 315 318 315 316 315 316 315 313 310 310 311 309 312 313 315 315 312 310 312 313 312 313 315 316 318 317 311 314 315 312 311 312 313 312 308 306
307 307 308 312 318 318 317 315 316 317 315 317 316 317 317 316 313 312 309 310 311 310 315 315 315 312 310 312 313 311 314 314 318 302 309 315 313 312 309 307 307 308 306 304 303
305 306 309 308 309 317 318 317 313 315 317 316 319 317 318 316 316 312 311 311 313 311 312 316 319 310 309 312 311 312 311 314 313 314 316 316 315 318 312 310 306 304 304 303 302
302 308 308 309 309 313 318 317 316 315 315 319 319 318 316 317 316 313 314 314 312 311 312 314 318 312 310 311 313 312 313 314 314 313 315 315 319 312 314 311 307 304 304 303 302
304 308 309 311 313 312 313 313 314 314 315 317 318 318 317 317 317 314 314 315 314 313 313 313 316 309 311 309 309 313 314 313 318 316 312 314 320 308 309 310 308 306 305 304 304
304 306 309 311 312 312 312 314 313 316 315 316 318 317 317 319 321 318 315 315 315 312 313 314 316 314 313 311 309 311 312 315 315 310 315 320 320 305 306 308 307 306 305 304 303
304 305 307 311 311 310 311 312 313 314 315 315 317 317 317 318 317 320 317 314 312 314 315 315 315 316 321 318 312 310 310 311 314 317 317 319 319 314 308 309 306 306 306 305 303
303 303 308 309 309 311 310 312 313 313 315 315 316 316 318 319 319 319 319 314 312 311 314 316 317 316 316 315 313 310 310 312 313 315 317 318 317 317 314 306 307 309 306 304 303
302 303 305 307 310 309 311 312 312 313 314 315 315 316 316 318 318 317 317 317 316 311 312 313 317 313 317 313 313 316 315 311 311 313 314 315 315 312 314 314 310 309 307 304 304
300 301 303 304 305 309 310 311 311 311 311 313 314 315 315 316 316 315 314 316 315 315 313 312 311 313 318 312 314 316 315 316 317 314 312 314 314 311 311 310 308 308 307 306 305
Wind_Speed
4 4 3 2 1 0 1 2 2 2 3 4 5 5 5 6 6 3 1 2 2 1 1 3 5 7 7 5 5 2 4 2 4 3 5 9 3 4 7 8 6 6 10 13 15
4 3 2 2 2 2 2 3 4 4 4 5 6 6 7 6 6 2 2 3 2 2 4 6 4 5 4 3 3 4 4 1 1 2 3 7 5 8 5 9 6 12 13 13 14
6 5 4 4 4 4 4 4 5 6 6 6 6 6 7 7 2 3 4 2 1 3 4 6 6 4 3 2 2 2 3 1 3 5 6 4 5 4 4 2 6 12 14 12 15
9 8 7 6 6 6 5 6 6 6 7 7 7 7 6 5 2 3 4 4 4 7 10 8 5 3 1 1 2 2 2 2 0 1 2 2 4 2 4 6 10 14 12 12 12
12 11 10 9 9 8 7 7 7 7 8 8 8 8 5 2 2 2 2 2 5 9 8 6 4 2 1 2 2 3 2 1 2 1 3 1 3 3 6 11 13 13 12 12 11
15 14 13 11 11 11 10 9 8 8 8 9 9 8 5 3 4 4 4 4 5 7 5 5 3 1 1 1 3 1 2 4 6 6 5 4 4 5 9 15 14 13 14 13 12
15 15 15 14 13 12 12 11 10 10 9 9 9 8 8 9 7 4 4 5 7 8 7 7 5 3 2 0 0 0 3 5 12 10 4 7 5 10 15 18 16 15 15 15 15
12 13 14 15 15 14 13 12 11 10 10 9 8 8 7 8 11 13 12 10 8 9 9 6 6 5 2 1 1 1 1 2 4 12 4 6 8 5 19 23 19 18 17 16 16
10 10 10 12 15 15 14 12 11 10 9 9 7 5 7 9 14 14 11 10 9 8 8 5 7 3 4 4 4 2 3 6 6 11 5 5 7 1 19 19 19 20 20 19 19
12 10 9 10 12 13 13 11 10 10 10 9 11 5 12 7 8 9 12 9 7 8 6 6 4 3 2 4 5 6 5 5 5 6 4 6 10 5 19 21 23 24 25 24 23
18 12 10 10 10 11 11 8 6 4 11 11 5 5 3 10 8 10 15 13 8 6 5 5 4 8 13 9 6 3 3 4 5 4 5 10 9 11 25 24 24 27 31 30 27
24 18 15 13 12 11 9 6 6 3 8 15 20 20 11 10 7 12 18 13 8 6 6 3 8 12 6 8 8 8 8 11 6 5 6 7 13 9 13 22 31 37 38 36 30
20 21 19 17 13 16 12 11 10 5 5 9 24 25 28 28 15 20 25 13 6 7 9 8 7 9 10 5 6 7 7 5 8 1 3 4 9 9 9 26 29 37 38 40 39
26 23 24 15 16 17 18 9 11 2 3 6 9 10 21 20 11 27 29 14 7 12 6 9 11 4 5 7 9 10 6 6 6 1 6 4 9 7 7 10 11 29 38 41 38
12 20 22 23 20 20 16 5 12 6 4 3 3 5 18 18 12 11 30 14 9 10 7 9 8 8 12 9 9 6 2 3 3 3 2 2 5 5 9 11 11 22 32 41 40
19 18 14 26 28 23 18 15 22 3 12 3 4 4 7 9 2 6 12 5 4 3 5 5 3 6 8 3 6 7 6 6 4 3 5 10 9 6 9 17 10 14 30 36 38
19 20 21 20 25 21 22 27 5 6 3 5 4 6 6 7 3 4 6 9 9 5 11 1 5 3 6 5 2 5 7 2 3 1 8 5 9 21 7 6 10 15 31 38 39
16 18 23 25 23 19 25 4 5 6 6 4 4 5 7 7 5 7 7 7 7 3 3 10 6 14 8 9 8 8 9 6 7 5 4 2 8 6 9 9 18 22 33 43 43
18 19 23 26 26 23 24 5 11 7 6 8 4 4 5 4 6 6 8 5 9 14 10 7 6 3 1 4 13 5 9 5 2 2 2 6 8 8 4 8 5 15 29 38 44
18 17 26 21 21 28 13 14 7 6 5 7 16 10 12 9 8 9 10 7 8 17 9 5 4 3 1 5 3 7 6 2 1 3 6 5 7 12 5 12 8 9 21 29 38
14 7 10 12 18 16 6 6 9 17 2 4 7 8 9 8 11 7 8 3 13 12 26 5 3 1 2 7 14 5 5 4 5 5 5 3 9 5 9 12 12 14 28 35 41
10 4 10 19 12 6 11 5 6 7 24 2 4 5 5 11 11 12 13 9 17 13 14 12 3 5 9 5 3 1 8 6 6 8 4 3 20 5 3 4 14 19 27 34 41
9 16 13 26 7 11 3 9 12 4 10 10 9 7 5 5 5 14 10 9 12 12 12 9 4 1 5 4 3 6 9 20 7 3 12 7 16 3 6 1 8 19 27 32 37
7 3 15 24 20 10 15 14 13 18 17 12 8 17 7 12 8 5 5 8 5 17 19 17 6 10 16 3 6 8 9 11 16 9 8 25 30 12 3 4 6 16 26 34 38
11 6 8 6 14 14 9 5 16 11 13 21 6 15 15 14 16 15 15 2 2 2 8 11 10 14 20 7 5 3 8 20 21 31 14 30 22 27 13 11 18 22 22 29 35
9 6 11 5 5 16 15 16 20 12 6 8 18 16 20 13 16 10 20 10 10 1 2 3 5 7 18 9 8 12 11 16 21 24 25 26 29 9 13 21 17 25 31 38 42
28 23 5 6 3 4 11 14 18 13 12 18 14 14 18 21 27 14 8 12 6 13 13 7 4 6 13 6 9 10 32 27 23 20 19 23 36 4 12 12 19 26 33 38 42
Wind_Direction
177 171 170 174 193 282 327 322 330 322 329 329 331 339 338 337 331 332 303 315 322 317 124 85 57 77 73 47 50 55 60 355 316 51 161 157 107 113 105 132 90 97 147 149 156
212 219 227 247 278 298 310 312 314 315 322 321 324 333 337 339 328 313 310 302 268 197 157 114 65 80 70 48 35 71 93 277 23 9 164 147 120 155 139 140 92 107 127 147 161
233 243 253 268 290 301 307 309 310 312 314 317 321 328 335 340 12 32 24 25 174 162 155 137 113 71 66 41 48 41 154 317 26 56 74 129 108 144 143 109 188 183 162 165 172
238 247 254 263 271 285 294 301 305 308 311 313 316 326 331 338 138 50 51 64 100 131 134 114 81 45 69 94 119 64 203 97 357 24 85 93 120 116 208 165 159 168 169 176 182
238 245 252 261 268 272 282 289 299 305 308 310 315 322 332 322 249 265 310 83 120 137 133 115 79 46 45 88 120 137 273 96 207 228 197 203 185 190 186 179 177 179 186 192 190
248 247 251 257 264 271 276 283 291 296 302 307 311 315 313 273 252 257 253 222 199 183 173 160 133 122 319 66 132 187 318 276 235 218 215 201 242 206 207 193 193 195 197 198 197
254 254 255 257 260 266 272 278 284 289 297 301 306 307 287 263 250 240 236 229 218 211 198 202 206 193 156 185 50 297 314 299 237 208 213 200 283 229 207 194 198 203 205 206 204
262 259 258 261 263 265 268 274 278 284 290 295 299 300 267 255 254 250 248 239 219 208 214 222 206 178 186 152 353 306 110 297 283 170 189 146 267 273 202 192 198 202 206 208 209
274 269 268 264 264 266 268 271 275 277 280 283 287 270 264 241 240 241 237 228 215 208 203 202 171 157 155 100 10 327 243 221 303 172 132 171 261 120 180 196 200 204 210 213 215
272 274 274 273 269 267 268 271 274 276 269 267 244 266 234 220 216 224 198 203 189 179 157 160 158 106 37 108 217 213 228 255 231 231 159 190 253 215 201 207 215 211 207 218 224
259 268 273 277 279 269 267 274 276 258 222 211 186 195 192 207 205 206 186 170 156 163 159 187 126 204 207 193 196 209 227 250 260 230 154 225 242 225 215 218 222 218 216 215 222
260 264 266 271 276 272 256 226 220 259 292 247 242 238 226 222 194 194 174 172 174 191 133 88 228 227 198 205 217 240 253 266 291 204 172 258 253 245 208 224 221 220 220 213 211
242 248 257 250 258 260 254 235 232 267 270 259 242 235 228 227 215 199 182 187 175 174 190 182 212 213 200 213 188 214 209 236 231 243 264 305 270 254 240 229 229 230 228 217 214
253 242 250 247 231 236 249 239 226 228 281 259 209 227 200 200 231 221 208 187 192 194 195 232 224 171 167 212 191 239 210 213 238 229 251 156 285 241 247 232 220 224 220 214 208
234 236 228 238 241 224 251 236 186 169 278 202 141 169 173 169 136 176 195 196 180 181 155 228 186 191 217 210 174 233 83 198 220 213 312 225 296 249 208 240 242 228 210 211 207
249 234 224 232 235 242 229 189 153 137 236 192 112 134 130 201 84 121 173 180 157 164 270 218 162 162 196 69 169 148 71 39 41 59 262 212 213 210 216 231 245 214 205 199 198
252 248 235 235 228 218 186 155 146 202 282 182 160 169 174 167 131 156 157 187 179 169 226 153 205 171 145 109 56 133 121 279 322 295 246 216 224 250 295 226 217 199 198 197 199
253 248 241 232 231 229 174 104 201 210 224 131 133 115 177 151 187 171 143 193 255 223 127 192 267 172 191 182 171 195 166 163 214 215 273 346 239 251 231 242 254 237 213 198 198
258 253 249 234 221 215 181 217 199 177 201 151 112 151 208 178 141 148 203 216 197 196 189 178 256 87 97 154 160 201 211 167 347 89 8 220 278 288 253 256 261 202 186 186 192
261 263 257 238 229 212 209 204 229 235 153 177 207 192 185 185 162 174 178 206 207 193 200 223 262 24 192 101 59 151 163 106 101 201 251 271 260 236 212 244 224 198 185 187 191
252 256 259 239 205 213 244 218 213 240 267 127 244 216 193 177 180 195 210 254 196 199 192 181 178 321 132 201 173 164 192 191 142 166 192 282 262 220 221 219 207 198 194 191 193
217 231 216 181 186 203 227 208 192 201 236 201 188 267 226 187 189 200 210 215 195 152 183 201 167 182 203 267 276 269 190 165 174 215 234 174 266 180 138 227 200 203 198 199 202
223 224 211 192 198 214 209 211 222 241 200 181 216 227 213 248 209 223 221 223 200 163 171 174 189 113 323 345 343 208 208 210 224 62 211 198 256 32 61 92 217 201 198 197 200
227 232 207 214 225 206 215 223 218 207 233 231 205 221 238 249 217 223 228 227 237 199 193 171 160 206 225 172 143 191 196 206 207 229 202 231 261 227 170 225 214 215 210 202 202
220 236 211 191 229 225 206 204 223 225 215 204 232 232 218 230 231 237 234 213 2 4 178 161 215 219 244 221 111 198 212 210 208 225 204 253 236 253 234 222 225 231 208 202 203
216 228 239 272 205 214 221 225 223 209 217 196 220 220 223 241 215 221 229 218 214 66 109 341 220 178 253 236 240 246 247 228 231 241 237 252 264 102 236 246 231 222 210 203 209
223 247 253 252 244 219 227 231 231 206 210 211 210 226 224 233 243 275 297 247 210 193 200 170 176 170 246 163 232 249 233 240 233 234 230 237 247 168 253 241 234 228 216 213 214